Location: ??????
(38.0677°N, 22.9870°E)
Time: 09:35:30
(UTC+00:00)

Okean 1 Rocket - Pass Details

Date: 23 May 2024
Orbit: 602 x 631 km, 82.5° (Epoch: 23 June)

Event Time Altitude Azimuth Distance (km) Brightness Sun altitude
Rises 01:39:25 0° 356° (N) 2,867 7.1 -15.6°
Reaches altitude 10° 01:41:41 10° 1° (N) 1,957 6.2 -15.3°
Maximum altitude 01:45:57 60° 81° (E) 695 3.6 -14.7°
Drops below altitude 10° 01:50:11 10° 162° (SSE) 1,939 5.4 -14.1°
Sets 01:52:24 0° 166° (SSE) 2,839 6.2 -13.7°
